Houghton, MI

2:25 AM EST on December 14, 2017 (GMT -0500)
Houghton County Memorial

Weather History for KCMX - September, 2012

Change the Weather History Date:

Friday, September 14, 2012

  Actual Average Record
Temperature  
Mean Temperature 50 °F -  
Max Temperature 60 °F 62 °F 80 °F (1968)
Min Temperature 39 °F 46 °F 30 °F (1953)
Degree Days  
Heating Degree Days 16    
Moisture  
Dew Point 45 °F    
Average Humidity 77    
Maximum Humidity 97    
Minimum Humidity 56    
Precipitation  
Precipitation 0.00 in - - ()
Sea Level Pressure  
Sea Level Pressure 30.29 in    
Wind  
Wind Speed 8 mph (NW)    
Max Wind Speed 17 mph    
Max Gust Speed 22 mph    
Visibility 10 miles    
Events      
Averages and records for this station are not official NWS values.
T = Trace of Precipitation, MM = Missing Value Source: NWS Daily Summary

Daily Weather History Graph

Daily Weather History Graph

Search for Another Location

Airport or City:

Trip Planner

Search our weather history database for the weather conditions in past years. The results will help you decide how hot, cold, wet, or windy it might be!

Date:

Astronomy

Sep. 14, 2012 Rise Set
Actual Time 7:30 AM EDT 8:06 PM EDT
Civil Twilight 7:00 AM EDT 8:37 PM EDT
Nautical Twilight 6:23 AM EDT 9:13 PM EDT
Astronomical Twilight 5:45 AM EDT 9:51 PM EDT
Moon 5:51 AM EDT 7:03 PM EDT
Length of Visible Light 13h 37m
Length of Day
12h 36m
Waning Crescent, 3% of the Moon is Illuminated
Sep 14
Waning Crescent
Sep 15
New
Sep 22
First Quarter
Sep 29
Full
Oct 8
Last Quarter

Hourly Weather History & Observations

Time (EDT) Temp. Windchill Dew Point Humidity Pressure Visibility Wind Dir Wind Speed Gust Speed Precip Events Conditions
12:53 AM 46.0 °F 43.9 °F 44.1 °F 93% 30.27 in 10.0 mi NW 4.6 mph - N/A   Clear
1:53 AM 44.1 °F 41.5 °F 43.0 °F 96% 30.27 in 10.0 mi WNW 4.6 mph - N/A   Clear
2:53 AM 46.0 °F 43.9 °F 44.1 °F 93% 30.27 in 10.0 mi NW 4.6 mph - N/A   Clear
3:53 AM 48.0 °F - 46.0 °F 93% 30.27 in 10.0 mi NW 5.8 mph - N/A   Partly Cloudy
4:53 AM 46.9 °F - 46.0 °F 97% 30.26 in 10.0 mi NW 6.9 mph - N/A   Scattered Clouds
5:53 AM 48.9 °F - 46.9 °F 93% 30.26 in 10.0 mi WNW 4.6 mph - N/A   Clear
6:53 AM 48.9 °F - 48.0 °F 97% 30.27 in 10.0 mi NW 5.8 mph - N/A   Scattered Clouds
7:53 AM 48.9 °F - 46.0 °F 90% 30.27 in 10.0 mi NNW 5.8 mph - N/A   Scattered Clouds
8:53 AM 53.6 °F - 48.2 °F 82% 30.26 in 10.0 mi WNW 4.6 mph - N/A   Partly Cloudy
9:44 AM 55.4 °F - 48.2 °F 77% 30.27 in 10.0 mi NNW 8.1 mph - N/A   Mostly Cloudy
9:53 AM 55.9 °F - 48.0 °F 75% 30.28 in 10.0 mi NW 12.7 mph - N/A   Mostly Cloudy
10:04 AM 57.2 °F - 46.4 °F 67% 30.27 in 10.0 mi NW 13.8 mph 19.6 mph N/A   Scattered Clouds
10:42 AM 57.2 °F - 46.4 °F 67% 30.27 in 10.0 mi NW 15.0 mph 19.6 mph N/A   Mostly Cloudy
10:53 AM 57.9 °F - 46.9 °F 67% 30.29 in 10.0 mi NNW 12.7 mph - N/A   Mostly Cloudy
11:06 AM 57.2 °F - 46.4 °F 67% 30.28 in 10.0 mi NW 17.3 mph - N/A   Mostly Cloudy
11:53 AM 60.1 °F - 46.9 °F 62% 30.30 in 10.0 mi NW 16.1 mph 21.9 mph N/A   Scattered Clouds
12:53 PM 55.9 °F - 46.9 °F 72% 30.31 in 10.0 mi NNW 10.4 mph - N/A   Overcast
1:02 PM 57.2 °F - 46.4 °F 67% 30.30 in 10.0 mi North 13.8 mph - N/A   Overcast
1:09 PM 59.0 °F - 48.2 °F 67% 30.30 in 10.0 mi North 10.4 mph - N/A   Mostly Cloudy
1:45 PM 57.2 °F - 46.4 °F 67% 30.30 in 10.0 mi NNW 9.2 mph - N/A   Overcast
1:53 PM 57.2 °F - 46.4 °F 67% 30.30 in 10.0 mi NW 11.5 mph - N/A   Mostly Cloudy
2:20 PM 59.0 °F - 44.6 °F 59% 30.30 in 10.0 mi NNW 12.7 mph 19.6 mph N/A   Mostly Cloudy
2:53 PM 59.0 °F - 44.1 °F 58% 30.32 in 10.0 mi NW 12.7 mph - N/A   Mostly Cloudy
3:53 PM 57.0 °F - 44.1 °F 62% 30.32 in 10.0 mi NNW 10.4 mph - N/A   Mostly Cloudy
4:53 PM 55.9 °F - 42.1 °F 60% 30.32 in 10.0 mi WNW 11.5 mph - N/A   Mostly Cloudy
5:53 PM 57.9 °F - 42.1 °F 56% 30.31 in 10.0 mi NW 10.4 mph - N/A   Mostly Cloudy
6:53 PM 55.9 °F - 43.0 °F 62% 30.32 in 10.0 mi NNW 5.8 mph - N/A   Scattered Clouds
7:53 PM 51.1 °F - 43.0 °F 74% 30.32 in 10.0 mi Calm Calm - N/A   Clear
8:53 PM 48.9 °F - 44.1 °F 83% 30.33 in 10.0 mi Calm Calm - N/A   Scattered Clouds
9:53 PM 42.1 °F 39.2 °F 41.0 °F 96% 30.34 in 10.0 mi WNW 4.6 mph - N/A   Clear
10:53 PM 39.9 °F - 39.0 °F 97% 30.34 in 10.0 mi Calm Calm - N/A   Clear
11:53 PM 41.0 °F 38.0 °F 37.9 °F 89% 30.34 in 10.0 mi WNW 4.6 mph - N/A   Clear